{"data":{"norad_id":49724,"intl_designator":"2021-115A","name":"STARLINK-3219","alt_names":[],"object_type":"PAYLOAD","status":"ACTIVE","operator":null,"country":"US","launch_date":"2021-12-02","launch_site_code":"AFETR","launch_vehicle":null,"mission":null,"orbit_class":"UNKNOWN","rcs_meters":null,"size_class":null,"mass_kg":null,"dimensions":null,"purposes":["comms"],"wikipedia_slug":null,"has_3d_model":false,"image_url":null,"decayed_at":null,"tle_current":{"epoch":"2026-05-24T18:18:35.987328Z","epoch_age_seconds":89554,"freshness":"FRESH","line1":"1 49724U 21115A   26144.76291652 -.00000513  00000+0 -14134-4 0  9998","line2":"2 49724  53.2133 167.8380 0001082  76.4625 283.6488 15.08832258247014","mean_motion":15.08832258,"eccentricity":0.0001082,"inclination_deg":53.2133,"raan_deg":167.838,"arg_perigee_deg":76.4625,"mean_anomaly_deg":283.6488,"bstar":-1.4134e-5,"rev_number":24701,"period_min":95.438044379351,"perigee_km":539.01853604349,"apogee_km":540.51557048062,"semimajor_km":6917.9040532621,"source":"CELESTRAK","updated_at":"2026-05-25T13:38:16.830773Z"}}}